{"data":{"norad_id":52127,"epoch":"2026-05-25T03:03:10.751328Z","epoch_age_seconds":78256,"freshness":"FRESH","line1":"1 52127U 22029AR  26145.12720777 -.00000163  00000+0  78359-5 0  9990","line2":"2 52127  53.2136  85.9790 0001555  88.4255 271.6915 15.08837603232464","mean_motion":15.08837603,"eccentricity":0.0001555,"inclination_deg":53.2136,"raan_deg":85.979,"arg_perigee_deg":88.4255,"mean_anomaly_deg":271.6915,"bstar":7.8359e-6,"rev_number":23246,"period_min":95.437706293697,"perigee_km":538.67498410409,"apogee_km":540.82644718365,"semimajor_km":6917.8877156439,"source":"CELESTRAK","updated_at":"2026-05-25T13:38:17.076859Z"}}